Location: *
(53.9002°N, 27.5624°E)
Time: 23:17:23
(UTC+00:00)

CENTAUR R/B - Pass Details

Date: 12 November 2019
Orbit: 779 x 1409 km, 63.4° (Epoch: 01 December)

Event Time Altitude Azimuth Distance (km) Brightness Sun altitude
Rises 17:31:58 0° 296° (WNW) 3,865 6.7 -28.6°
Reaches altitude 10° 17:34:38 10° 303° (WNW) 2,999 5.8 -29.0°
Maximum altitude 17:41:36 45° 16° (NNE) 1,633 3.5 -30.0°
Enters shadow 17:42:29 44° 33° (NNE) 1,683 3.5 -30.2°
